Location: Drocourt
(49.0571°N, 1.7669°E)
Time: 16:29:35
(UTC+00:00)

SR - Pass Details

Date: 26 April 2024
Orbit: 579 x 860 km, 66.7° (Epoch: 22 May)

Event Time Altitude Azimuth Distance (km) Brightness Sun altitude
Exits shadow 22:56:03 16° 81° (E) 1,888 ? -25.9°
Drops below altitude 10° 22:57:44 10° 64° (ENE) 2,257 ? -25.9°
Sets 23:00:34 0° 48° (NE) 3,129 ? -26.1°
